WMT542 LROP-LIPH

Flight info

Callsign WMT542
Flight time 1h 42m
Altitude 36000
Route POLUN DCT LELTI DCT ANASA DCT SOMUN DCT OKSIG DCT NAKIT DCT LABIN L614 CHI N503 INBUT
Aircraft A321/M-L/S

Departure

Time 2026-04-15 08:10
Airport Bucharest Henri Coandă International Airport (LROP)

Arrival

Time 2026-04-15 09:53
Airport Treviso Airport (LIPH)
Time Latitude Longitude Altitude Speed Heading
2026-04-15 07:48 44.57051 26.08275 323 ft 0 kts 276°
2026-04-15 08:02 44.57051 26.08283 323 ft 2 kts 276°
2026-04-15 08:03 44.57049 26.08310 319 ft 3 kts 276°
2026-04-15 08:03 44.57047 26.08337 321 ft 3 kts 276°
2026-04-15 08:03 44.57043 26.08363 322 ft 3 kts 303°
2026-04-15 08:03 44.57031 26.08381 321 ft 3 kts 337°
2026-04-15 08:04 44.57016 26.08388 322 ft 1 kts 354°
2026-04-15 08:04 44.57024 26.08386 322 ft 3 kts 354°
2026-04-15 08:04 44.57044 26.08384 321 ft 3 kts 354°
2026-04-15 08:04 44.57059 26.08381 323 ft 1 kts 354°
2026-04-15 08:05 44.57060 26.08381 323 ft 0 kts 354°
2026-04-15 08:06 44.57066 26.08380 321 ft 2 kts 354°
2026-04-15 08:07 44.57084 26.08378 323 ft 3 kts 354°
2026-04-15 08:07 44.57114 26.08374 323 ft 5 kts 354°
2026-04-15 08:07 44.57155 26.08368 323 ft 7 kts 354°
2026-04-15 08:07 44.57207 26.08369 323 ft 8 kts 24°
2026-04-15 08:08 44.57229 26.08440 323 ft 9 kts 78°
2026-04-15 08:08 44.57268 26.08495 323 ft 9 kts
2026-04-15 08:08 44.57338 26.08489 323 ft 11 kts 354°
2026-04-15 08:08 44.57418 26.08478 323 ft 12 kts 354°
2026-04-15 08:09 44.57508 26.08465 323 ft 14 kts 354°
2026-04-15 08:09 44.57609 26.08451 323 ft 15 kts 354°
2026-04-15 08:09 44.57661 26.08463 323 ft 6 kts 61°
2026-04-15 08:09 44.57669 26.08527 324 ft 7 kts 84°
2026-04-15 08:10 44.57678 26.08662 323 ft 35 kts 84°
2026-04-15 08:10 44.57733 26.09369 322 ft 109 kts 84°
2026-04-15 08:10 44.57831 26.10708 356 ft 161 kts 83°
2026-04-15 08:10 44.57943 26.12247 1090 ft 158 kts 83°
2026-04-15 08:11 44.58062 26.13791 1866 ft 159 kts 84°
2026-04-15 08:11 44.57928 26.15321 2443 ft 164 kts 116°
2026-04-15 08:11 44.57063 26.16343 3074 ft 169 kts 160°
2026-04-15 08:11 44.55880 26.16270 3612 ft 181 kts 201°
2026-04-15 08:12 44.54892 26.15039 3895 ft 205 kts 239°
2026-04-15 08:12 44.54382 26.13066 4104 ft 228 kts 255°
2026-04-15 08:12 44.53973 26.10765 4257 ft 258 kts 257°
2026-04-15 08:12 44.53549 26.08268 4942 ft 266 kts 257°
2026-04-15 08:13 44.53226 26.05693 5710 ft 272 kts 264°
2026-04-15 08:13 44.53068 26.03033 6495 ft 277 kts 266°
2026-04-15 08:13 44.52943 26.00312 7250 ft 281 kts 266°
2026-04-15 08:13 44.52828 25.97564 8050 ft 284 kts 266°
2026-04-15 08:14 44.52711 25.94781 8843 ft 287 kts 266°
2026-04-15 08:14 44.52588 25.91974 9647 ft 290 kts 266°
2026-04-15 08:14 44.52459 25.89148 10411 ft 293 kts 266°
2026-04-15 08:14 44.52317 25.86186 10660 ft 316 kts 266°
2026-04-15 08:15 44.52160 25.83003 10884 ft 336 kts 266°
2026-04-15 08:15 44.51993 25.79697 11454 ft 343 kts 266°
2026-04-15 08:15 44.51822 25.76339 12149 ft 347 kts 266°
2026-04-15 08:15 44.51649 25.72957 12858 ft 350 kts 266°
2026-04-15 08:16 44.51473 25.69536 13568 ft 353 kts 266°
2026-04-15 08:16 44.51297 25.66101 14255 ft 356 kts 266°
2026-04-15 08:16 44.51120 25.62623 14912 ft 358 kts 266°
2026-04-15 08:16 44.50943 25.59132 15580 ft 360 kts 266°
2026-04-15 08:17 44.50764 25.55615 16257 ft 362 kts 266°
2026-04-15 08:17 44.50583 25.52091 16921 ft 365 kts 266°
2026-04-15 08:17 44.50398 25.48529 17571 ft 367 kts 266°
2026-04-15 08:17 44.50210 25.44950 18193 ft 370 kts 266°
2026-04-15 08:18 44.50019 25.41343 18790 ft 373 kts 266°
2026-04-15 08:18 44.49824 25.37701 19327 ft 376 kts 266°
2026-04-15 08:18 44.49626 25.34034 19882 ft 379 kts 266°
2026-04-15 08:18 44.49427 25.30344 20450 ft 381 kts 266°
2026-04-15 08:19 44.49226 25.26637 21012 ft 383 kts 266°
2026-04-15 08:19 44.49022 25.22903 21593 ft 386 kts 266°
2026-04-15 08:19 44.48815 25.19152 22158 ft 388 kts 266°
2026-04-15 08:19 44.48607 25.15375 22732 ft 390 kts 266°
2026-04-15 08:20 44.48396 25.11589 23295 ft 391 kts 266°
2026-04-15 08:20 44.48179 25.07774 23825 ft 393 kts 266°
2026-04-15 08:20 44.47960 25.03949 24289 ft 395 kts 266°
2026-04-15 08:20 44.47742 25.00106 24751 ft 397 kts 266°
2026-04-15 08:21 44.47524 24.96248 25189 ft 398 kts 266°
2026-04-15 08:21 44.47304 24.92375 25635 ft 400 kts 266°
2026-04-15 08:21 44.47080 24.88481 26066 ft 402 kts 266°
2026-04-15 08:21 44.46855 24.84573 26488 ft 404 kts 265°
2026-04-15 08:22 44.46628 24.80645 26902 ft 406 kts 265°
2026-04-15 08:22 44.46399 24.76699 27302 ft 408 kts 265°
2026-04-15 08:22 44.46167 24.72732 27707 ft 410 kts 265°
2026-04-15 08:22 44.45932 24.68749 28105 ft 412 kts 265°
2026-04-15 08:23 44.45692 24.64740 28498 ft 414 kts 265°
2026-04-15 08:23 44.45448 24.60713 28882 ft 416 kts 265°
2026-04-15 08:23 44.45200 24.56671 29257 ft 418 kts 265°
2026-04-15 08:23 44.44950 24.52604 29619 ft 421 kts 265°
2026-04-15 08:24 44.44698 24.48522 29975 ft 423 kts 265°
2026-04-15 08:24 44.44445 24.44411 30330 ft 425 kts 265°
2026-04-15 08:24 44.44189 24.40271 30641 ft 427 kts 265°
2026-04-15 08:24 44.43932 24.36114 30947 ft 430 kts 265°
2026-04-15 08:25 44.43670 24.31941 31283 ft 431 kts 265°
2026-04-15 08:25 44.43409 24.27783 31713 ft 430 kts 265°
2026-04-15 08:25 44.43146 24.23623 32132 ft 429 kts 265°
2026-04-15 08:25 44.42882 24.19471 32548 ft 428 kts 265°
2026-04-15 08:26 44.42617 24.15328 32958 ft 427 kts 265°
2026-04-15 08:26 44.42349 24.11194 33374 ft 426 kts 265°
2026-04-15 08:26 44.42081 24.07080 33772 ft 425 kts 265°
2026-04-15 08:26 44.41812 24.02967 34165 ft 425 kts 265°
2026-04-15 08:27 44.41540 23.98846 34519 ft 424 kts 265°
2026-04-15 08:27 44.41269 23.94747 34840 ft 423 kts 265°
2026-04-15 08:27 44.40999 23.90660 35159 ft 423 kts 265°
2026-04-15 08:27 44.40724 23.86555 35466 ft 423 kts 264°
2026-04-15 08:28 44.40446 23.82454 35773 ft 423 kts 264°
2026-04-15 08:28 44.40168 23.78371 36087 ft 423 kts 264°
2026-04-15 08:28 44.39890 23.74274 36224 ft 422 kts 264°
2026-04-15 08:29 44.39339 23.66127 36250 ft 420 kts 264°
2026-04-15 08:29 44.38782 23.57989 36249 ft 420 kts 264°
2026-04-15 08:30 44.38213 23.49866 36249 ft 420 kts 264°
2026-04-15 08:30 44.37635 23.41742 36253 ft 420 kts 264°
2026-04-15 08:31 44.37054 23.33601 36255 ft 421 kts 264°
2026-04-15 08:31 44.36473 23.25461 36252 ft 421 kts 264°
2026-04-15 08:32 44.35880 23.17312 36257 ft 422 kts 264°
2026-04-15 08:32 44.35282 23.09158 36259 ft 422 kts 264°
2026-04-15 08:33 44.34676 23.00990 36261 ft 423 kts 263°
2026-04-15 08:33 44.34163 22.94154 36260 ft 423 kts 263°
2026-04-15 08:34 44.33553 22.86039 36259 ft 423 kts 263°
2026-04-15 08:34 44.32923 22.77807 36261 ft 423 kts 263°
2026-04-15 08:35 44.32292 22.69626 36259 ft 424 kts 263°
2026-04-15 08:35 44.31650 22.61464 36260 ft 424 kts 263°
2026-04-15 08:36 44.31412 22.53232 36255 ft 425 kts 275°
2026-04-15 08:36 44.32218 22.45050 36256 ft 426 kts 277°
2026-04-15 08:37 44.33016 22.36837 36253 ft 426 kts 276°
2026-04-15 08:37 44.33800 22.28627 36244 ft 427 kts 276°
2026-04-15 08:38 44.34587 22.20403 36238 ft 427 kts 276°
2026-04-15 08:38 44.35364 22.12175 36237 ft 427 kts 276°
2026-04-15 08:39 44.36123 22.03988 36233 ft 428 kts 276°
2026-04-15 08:39 44.36894 21.95691 36230 ft 428 kts 276°
2026-04-15 08:40 44.37659 21.87442 36222 ft 428 kts 276°
2026-04-15 08:40 44.38411 21.79199 36219 ft 427 kts 276°
2026-04-15 08:41 44.39153 21.70956 36215 ft 427 kts 276°
2026-04-15 08:41 44.39900 21.62712 36209 ft 427 kts 276°
2026-04-15 08:42 44.40641 21.54464 36202 ft 427 kts 276°
2026-04-15 08:42 44.41369 21.46210 36199 ft 428 kts 276°
2026-04-15 08:43 44.42085 21.37944 36195 ft 428 kts 276°
2026-04-15 08:43 44.42809 21.29674 36193 ft 429 kts 276°
2026-04-15 08:44 44.43525 21.21382 36200 ft 429 kts 276°
2026-04-15 08:44 44.44235 21.13088 36201 ft 429 kts 276°
2026-04-15 08:45 44.44939 21.04802 36205 ft 429 kts 276°
2026-04-15 08:45 44.45630 20.96546 36206 ft 430 kts 276°
2026-04-15 08:46 44.46324 20.88242 36206 ft 430 kts 276°
2026-04-15 08:46 44.47014 20.79878 36208 ft 430 kts 276°
2026-04-15 08:47 44.47695 20.71555 36209 ft 430 kts 276°
2026-04-15 08:47 44.48366 20.63237 36207 ft 430 kts 276°
2026-04-15 08:48 44.49027 20.54917 36209 ft 430 kts 275°
2026-04-15 08:48 44.49691 20.46594 36207 ft 430 kts 275°
2026-04-15 08:49 44.50351 20.38265 36206 ft 430 kts 275°
2026-04-15 08:49 44.51000 20.29946 36205 ft 430 kts 275°
2026-04-15 08:50 44.51639 20.21622 36204 ft 430 kts 275°
2026-04-15 08:50 44.52277 20.13296 36203 ft 430 kts 275°
2026-04-15 08:51 44.52913 20.04978 36202 ft 429 kts 275°
2026-04-15 08:51 44.53538 19.96654 36203 ft 429 kts 275°
2026-04-15 08:52 44.54154 19.88333 36202 ft 429 kts 275°
2026-04-15 08:52 44.54765 19.80011 36203 ft 429 kts 275°
2026-04-15 08:53 44.55372 19.71687 36201 ft 429 kts 275°
2026-04-15 08:53 44.55973 19.63371 36204 ft 429 kts 275°
2026-04-15 08:54 44.56568 19.55035 36203 ft 429 kts 275°
2026-04-15 08:54 44.57162 19.46693 36207 ft 430 kts 275°
2026-04-15 08:55 44.57747 19.38360 36209 ft 430 kts 275°
2026-04-15 08:55 44.58334 19.30073 36205 ft 429 kts 275°
2026-04-15 08:56 44.59077 19.21704 36208 ft 430 kts 277°
2026-04-15 08:56 44.59876 19.13458 36208 ft 430 kts 277°
2026-04-15 08:57 44.60655 19.05137 36206 ft 430 kts 276°
2026-04-15 08:57 44.61401 18.96771 36210 ft 430 kts 276°
2026-04-15 08:58 44.62129 18.88496 36209 ft 430 kts 276°
2026-04-15 08:58 44.63237 18.75939 36211 ft 430 kts 276°
2026-04-15 08:59 44.63962 18.67663 36211 ft 430 kts 276°
2026-04-15 08:59 44.64684 18.59323 36213 ft 430 kts 276°
2026-04-15 09:00 44.65405 18.50919 36216 ft 430 kts 276°
2026-04-15 09:00 44.66113 18.42576 36219 ft 430 kts 275°
2026-04-15 09:01 44.66815 18.34227 36221 ft 430 kts 275°
2026-04-15 09:01 44.67508 18.25912 36226 ft 430 kts 275°
2026-04-15 09:02 44.68200 18.17534 36223 ft 430 kts 275°
2026-04-15 09:02 44.68889 18.09183 36222 ft 430 kts 275°
2026-04-15 09:03 44.69569 18.00820 36226 ft 430 kts 275°
2026-04-15 09:03 44.70238 17.92474 36234 ft 430 kts 275°
2026-04-15 09:04 44.70902 17.84111 36232 ft 430 kts 275°
2026-04-15 09:04 44.71562 17.75732 36228 ft 431 kts 275°
2026-04-15 09:05 44.72216 17.67363 36234 ft 431 kts 275°
2026-04-15 09:05 44.72872 17.58998 36243 ft 431 kts 275°
2026-04-15 09:06 44.73515 17.50625 36238 ft 430 kts 274°
2026-04-15 09:06 44.74151 17.42251 36239 ft 430 kts 274°
2026-04-15 09:07 44.74786 17.33863 36239 ft 431 kts 274°
2026-04-15 09:07 44.75412 17.25480 36239 ft 431 kts 274°
2026-04-15 09:08 44.76027 17.17085 36238 ft 431 kts 274°
2026-04-15 09:08 44.76640 17.08696 36236 ft 431 kts 274°
2026-04-15 09:09 44.77244 17.00303 36232 ft 431 kts 274°
2026-04-15 09:09 44.77840 16.91898 36232 ft 432 kts 274°
2026-04-15 09:10 44.78432 16.83487 36228 ft 432 kts 274°
2026-04-15 09:10 44.78926 16.76491 36229 ft 432 kts 274°
2026-04-15 09:11 44.79515 16.68085 36225 ft 432 kts 274°
2026-04-15 09:11 44.80092 16.59668 36227 ft 432 kts 273°
2026-04-15 09:12 44.80660 16.51234 36227 ft 432 kts 273°
2026-04-15 09:12 44.81224 16.42813 36230 ft 433 kts 273°
2026-04-15 09:13 44.81780 16.34385 36231 ft 433 kts 273°
2026-04-15 09:13 44.82340 16.25926 36230 ft 433 kts 273°
2026-04-15 09:14 44.82894 16.17487 36235 ft 433 kts 273°
2026-04-15 09:14 44.83437 16.09034 36227 ft 433 kts 273°
2026-04-15 09:15 44.83971 16.00573 36228 ft 433 kts 273°
2026-04-15 09:15 44.84500 15.92110 36227 ft 433 kts 273°
2026-04-15 09:16 44.85020 15.83651 36224 ft 433 kts 273°
2026-04-15 09:16 44.85536 15.75179 36218 ft 434 kts 273°
2026-04-15 09:17 44.86048 15.66717 36218 ft 434 kts 273°
2026-04-15 09:17 44.86552 15.58240 36223 ft 434 kts 273°
2026-04-15 09:18 44.87061 15.49701 36216 ft 434 kts 274°
2026-04-15 09:18 44.87554 15.41208 36213 ft 435 kts 273°
2026-04-15 09:19 44.88031 15.32775 36216 ft 435 kts 273°
2026-04-15 09:19 44.88508 15.24272 36224 ft 435 kts 273°
2026-04-15 09:20 44.88987 15.15764 36217 ft 434 kts 273°
2026-04-15 09:20 44.89466 15.07283 36209 ft 433 kts 273°
2026-04-15 09:21 44.89930 14.98824 36202 ft 432 kts 273°
2026-04-15 09:21 44.90382 14.90327 36193 ft 431 kts 273°
2026-04-15 09:22 44.90823 14.81954 35967 ft 429 kts 273°
2026-04-15 09:22 44.91046 14.77708 35566 ft 429 kts 273°
2026-04-15 09:22 44.91265 14.73502 35175 ft 430 kts 273°
2026-04-15 09:23 44.91482 14.69290 34789 ft 430 kts 272°
2026-04-15 09:23 44.91698 14.65087 34410 ft 429 kts 272°
2026-04-15 09:23 44.91906 14.60946 34016 ft 427 kts 272°
2026-04-15 09:23 44.92117 14.56727 33563 ft 425 kts 272°
2026-04-15 09:24 44.92326 14.52577 33132 ft 423 kts 272°
2026-04-15 09:24 44.92537 14.48444 32697 ft 422 kts 272°
2026-04-15 09:24 44.92743 14.44329 32271 ft 420 kts 272°
2026-04-15 09:24 44.92943 14.40220 31860 ft 419 kts 272°
2026-04-15 09:25 44.93141 14.36132 31441 ft 417 kts 272°
2026-04-15 09:25 44.93337 14.32055 31040 ft 416 kts 271°
2026-04-15 09:25 44.93534 14.27982 30632 ft 415 kts 271°
2026-04-15 09:25 44.93727 14.23926 30242 ft 414 kts 271°
2026-04-15 09:26 44.93916 14.19878 29796 ft 412 kts 271°
2026-04-15 09:26 44.94101 14.15858 29340 ft 410 kts 271°
2026-04-15 09:26 44.94288 14.11857 28898 ft 407 kts 271°
2026-04-15 09:26 44.94475 14.07879 28457 ft 405 kts 272°
2026-04-15 09:27 44.94659 14.03930 28027 ft 402 kts 271°
2026-04-15 09:27 44.94836 14.00005 27602 ft 399 kts 271°
2026-04-15 09:27 44.95009 13.96103 27180 ft 397 kts 271°
2026-04-15 09:27 44.95180 13.92231 26770 ft 394 kts 272°
2026-04-15 09:28 44.95350 13.88378 26365 ft 392 kts 272°
2026-04-15 09:28 44.95519 13.84545 25966 ft 390 kts 272°
2026-04-15 09:28 44.95687 13.80744 25567 ft 387 kts 272°
2026-04-15 09:28 44.95854 13.76961 25181 ft 385 kts 272°
2026-04-15 09:29 44.96018 13.73193 24791 ft 383 kts 272°
2026-04-15 09:29 44.96176 13.69448 24410 ft 380 kts 272°
2026-04-15 09:29 44.96330 13.65740 24041 ft 378 kts 272°
2026-04-15 09:29 44.96485 13.62045 23708 ft 375 kts 272°
2026-04-15 09:30 44.96641 13.58372 23322 ft 374 kts 272°
2026-04-15 09:30 44.96794 13.54711 22941 ft 373 kts 272°
2026-04-15 09:30 44.96946 13.51071 22570 ft 371 kts 272°
2026-04-15 09:30 44.97096 13.47438 22191 ft 370 kts 272°
2026-04-15 09:31 44.97241 13.43828 21829 ft 368 kts 272°
2026-04-15 09:31 44.97366 13.40645 21508 ft 367 kts 272°
2026-04-15 09:31 44.97505 13.37060 21150 ft 365 kts 272°
2026-04-15 09:31 44.97645 13.33480 20829 ft 364 kts 272°
2026-04-15 09:32 44.97785 13.29919 20529 ft 363 kts 272°
2026-04-15 09:32 44.97924 13.26369 20214 ft 362 kts 272°
2026-04-15 09:32 44.98064 13.22825 19937 ft 360 kts 272°
2026-04-15 09:32 44.98201 13.19296 19643 ft 359 kts 272°
2026-04-15 09:33 44.98335 13.15780 19355 ft 358 kts 272°
2026-04-15 09:33 44.98466 13.12276 19150 ft 357 kts 272°
2026-04-15 09:33 44.98628 13.08778 19138 ft 357 kts 276°
2026-04-15 09:33 44.99002 13.05304 19147 ft 358 kts 278°
2026-04-15 09:34 44.99385 13.01827 19148 ft 358 kts 278°
2026-04-15 09:34 44.99760 12.98352 19148 ft 358 kts 278°
2026-04-15 09:34 45.00134 12.94877 19150 ft 358 kts 278°
2026-04-15 09:34 45.00508 12.91392 19150 ft 358 kts 278°
2026-04-15 09:35 45.00878 12.87914 19150 ft 358 kts 278°
2026-04-15 09:35 45.01249 12.84438 19146 ft 358 kts 278°
2026-04-15 09:35 45.01619 12.80956 19147 ft 358 kts 278°
2026-04-15 09:35 45.01987 12.77479 19150 ft 358 kts 278°
2026-04-15 09:36 45.02356 12.73995 19145 ft 358 kts 278°
2026-04-15 09:36 45.02725 12.70524 19146 ft 358 kts 278°
2026-04-15 09:36 45.03095 12.67043 19146 ft 357 kts 278°
2026-04-15 09:36 45.03460 12.63572 19150 ft 357 kts 278°
2026-04-15 09:37 45.03821 12.60109 19149 ft 357 kts 277°
2026-04-15 09:37 45.04181 12.56628 19037 ft 357 kts 277°
2026-04-15 09:37 45.04539 12.53156 18796 ft 355 kts 277°
2026-04-15 09:37 45.04896 12.49705 18559 ft 354 kts 278°
2026-04-15 09:38 45.05252 12.46264 18309 ft 353 kts 278°
2026-04-15 09:38 45.05609 12.42835 18041 ft 352 kts 277°
2026-04-15 09:38 45.05961 12.39436 17675 ft 346 kts 277°
2026-04-15 09:38 45.06304 12.36090 17244 ft 343 kts 277°
2026-04-15 09:39 45.06684 12.32770 16809 ft 341 kts 283°
2026-04-15 09:39 45.07483 12.29635 16387 ft 338 kts 297°
2026-04-15 09:39 45.08765 12.26876 15953 ft 336 kts 310°
2026-04-15 09:39 45.10458 12.24611 15527 ft 334 kts 323°
2026-04-15 09:40 45.12317 12.22654 15104 ft 333 kts 323°
2026-04-15 09:40 45.14171 12.20696 14686 ft 332 kts 323°
2026-04-15 09:40 45.16017 12.18738 14259 ft 331 kts 323°
2026-04-15 09:40 45.17854 12.16783 13829 ft 330 kts 323°
2026-04-15 09:41 45.19689 12.14824 13385 ft 330 kts 323°
2026-04-15 09:41 45.21527 12.12865 12966 ft 331 kts 323°
2026-04-15 09:41 45.23367 12.10904 12544 ft 331 kts 323°
2026-04-15 09:41 45.25205 12.08947 12128 ft 329 kts 323°
2026-04-15 09:42 45.27028 12.07001 11722 ft 326 kts 323°
2026-04-15 09:42 45.28835 12.05074 11321 ft 324 kts 324°
2026-04-15 09:42 45.30634 12.03163 10919 ft 322 kts 324°
2026-04-15 09:42 45.32424 12.01261 10526 ft 320 kts 324°
2026-04-15 09:43 45.34198 11.99373 10149 ft 318 kts 324°
2026-04-15 09:43 45.35956 11.97499 9729 ft 315 kts 324°
2026-04-15 09:43 45.37708 11.95631 9309 ft 313 kts 324°
2026-04-15 09:43 45.39434 11.93786 8881 ft 306 kts 324°
2026-04-15 09:44 45.41082 11.92019 8500 ft 287 kts 324°
2026-04-15 09:44 45.42629 11.90361 8144 ft 270 kts 324°
2026-04-15 09:44 45.44092 11.88792 7790 ft 257 kts 325°
2026-04-15 09:44 45.45475 11.87307 7469 ft 241 kts 325°
2026-04-15 09:45 45.46790 11.85894 7136 ft 236 kts 325°
2026-04-15 09:45 45.48094 11.84492 6784 ft 232 kts 325°
2026-04-15 09:45 45.49362 11.83126 6440 ft 228 kts 325°
2026-04-15 09:45 45.50644 11.81811 6078 ft 225 kts 334°
2026-04-15 09:46 45.52114 11.81210 5692 ft 219 kts
2026-04-15 09:46 45.53570 11.81573 5415 ft 209 kts 26°
2026-04-15 09:46 45.54755 11.82735 5216 ft 201 kts 49°
2026-04-15 09:46 45.55484 11.84403 4993 ft 198 kts 69°
2026-04-15 09:47 45.55976 11.86240 4727 ft 198 kts 69°
2026-04-15 09:47 45.56467 11.88064 4469 ft 197 kts 69°
2026-04-15 09:47 45.56792 11.89274 4291 ft 197 kts 69°
2026-04-15 09:47 45.57282 11.91096 4027 ft 196 kts 69°
2026-04-15 09:48 45.57770 11.92910 3768 ft 195 kts 69°
2026-04-15 09:48 45.58255 11.94715 3508 ft 195 kts 70°
2026-04-15 09:48 45.58738 11.96516 3242 ft 193 kts 69°
2026-04-15 09:48 45.59212 11.98285 3005 ft 187 kts 70°
2026-04-15 09:49 45.59666 11.99978 2764 ft 180 kts 70°
2026-04-15 09:49 45.60105 12.01615 2509 ft 175 kts 70°
2026-04-15 09:49 45.60532 12.03211 2265 ft 169 kts 70°
2026-04-15 09:49 45.60940 12.04739 2050 ft 160 kts 69°
2026-04-15 09:50 45.61324 12.06176 1869 ft 149 kts 69°
2026-04-15 09:50 45.61682 12.07513 1660 ft 139 kts 69°
2026-04-15 09:50 45.62022 12.08787 1466 ft 134 kts 70°
2026-04-15 09:50 45.62355 12.10038 1286 ft 133 kts 69°
2026-04-15 09:51 45.62686 12.11279 1124 ft 134 kts 69°
2026-04-15 09:51 45.63017 12.12521 921 ft 135 kts 70°
2026-04-15 09:51 45.63348 12.13765 750 ft 133 kts 70°
2026-04-15 09:51 45.63678 12.15013 536 ft 135 kts 69°
2026-04-15 09:52 45.64010 12.16261 386 ft 134 kts 69°
2026-04-15 09:52 45.64341 12.17488 180 ft 131 kts 69°
2026-04-15 09:52 45.64661 12.18682 65 ft 118 kts 69°
2026-04-15 09:52 45.64903 12.19605 58 ft 76 kts 69°
2026-04-15 09:53 45.65030 12.20079 62 ft 30 kts 66°
2026-04-15 09:53 45.65155 12.20236 59 ft 20 kts 27°
2026-04-15 09:53 45.65261 12.20309 63 ft 13 kts 32°
2026-04-15 09:53 45.65309 12.20408 57 ft 12 kts 70°
2026-04-15 09:54 45.65334 12.20487 56 ft 5 kts 59°
2026-04-15 09:54 45.65365 12.20500 59 ft 6 kts 343°
2026-04-15 09:54 45.65386 12.20489 59 ft 1 kts 339°
2026-04-15 09:54 45.65395 12.20484 58 ft 1 kts 339°
2026-04-15 09:55 45.65397 12.20483 58 ft 0 kts 339°